Weather History for KFWC - May, 2013

Change the Weather History Date:

Saturday, May 4, 2013

  Actual Average (KMVN) Record (KMVN)
Temperature  
Mean Temperature 46 °F -  
Max Temperature 48 °F 71 °F 87 °F (2012)
Min Temperature 44 °F 51 °F 33 °F (2005)
Degree Days  
Heating Degree Days 19    
Moisture  
Dew Point 44 °F    
Average Humidity 92    
Maximum Humidity 93    
Minimum Humidity 87    
Precipitation  
Precipitation 1.19 in - - ()
Sea Level Pressure  
Sea Level Pressure 29.94 in    
Wind  
Wind Speed 4 mph (SSW)    
Max Wind Speed 10 mph    
Max Gust Speed -    
Visibility 8 miles    
Events Rain    
Averages and records for this station are not official NWS values.
T = Trace of Precipitation, MM = Missing Value Source: NWS Daily Summary

Daily Weather History Graph

Daily Weather History Graph

Search for Another Location

Airport or City:

Trip Planner

Search our weather history database for the weather conditions in past years. The results will help you decide how hot, cold, wet, or windy it might be!

Date:

Astronomy

May. 04, 2013 Rise Set
Actual Time 5:53 AM CDT 7:48 PM CDT
Civil Twilight 5:24 AM CDT 8:17 PM CDT
Nautical Twilight 4:49 AM CDT 8:52 PM CDT
Astronomical Twilight 4:11 AM CDT 9:30 PM CDT
Moon 2:47 AM CDT 2:49 PM CDT
Length of Visible Light 14h 52m
Length of Day
13h 55m
Waning Crescent, 27% of the Moon is Illuminated
May 4
Waning Crescent
May 9
New
May 17
First Quarter
May 24
Full
May 31
Last Quarter

Hourly Weather History & Observations

Time (CDT) Temp. Windchill Dew Point Humidity Pressure Visibility Wind Dir Wind Speed Gust Speed Precip Events Conditions
12:15 AM 46.4 °F 44.3 °F 44.6 °F 93% 29.89 in 10.0 mi SW 4.6 mph - N/A Rain Light Rain
12:35 AM 46.4 °F 41.5 °F 44.6 °F 93% 29.90 in 10.0 mi SW 10.4 mph - 0.02 in Rain Light Rain
12:55 AM 46.4 °F 44.3 °F 44.6 °F 93% 29.89 in 5.0 mi SSW 4.6 mph - 0.02 in   Drizzle
1:15 AM 46.4 °F 44.3 °F 44.6 °F 93% 29.89 in 7.0 mi SW 4.6 mph - N/A Rain Rain
1:35 AM 46.4 °F 44.3 °F 44.6 °F 93% 29.88 in 7.0 mi SW 4.6 mph - 0.01 in   Drizzle
1:55 AM 46.4 °F 44.3 °F 44.6 °F 93% 29.88 in 10.0 mi SW 4.6 mph - 0.01 in Rain Light Rain
2:15 AM 46.4 °F 43.5 °F 44.6 °F 93% 29.88 in 10.0 mi SSW 5.8 mph - 0.02 in Rain Rain
2:35 AM 46.4 °F 42.4 °F 44.6 °F 93% 29.89 in 10.0 mi SSW 8.1 mph - 0.04 in Rain Light Rain
2:55 AM 44.6 °F 40.7 °F 42.8 °F 93% 29.89 in 7.0 mi SW 6.9 mph - 0.06 in Rain Rain
3:15 AM 44.6 °F - 42.8 °F 93% 29.88 in 10.0 mi Calm Calm - 0.01 in Rain Rain
3:35 AM 44.6 °F 43.1 °F 42.8 °F 93% 29.88 in 10.0 mi SSW 3.5 mph - 0.04 in Rain Rain
3:55 AM 44.6 °F - 42.8 °F 93% 29.88 in 10.0 mi Calm Calm - 0.06 in Rain Rain
4:15 AM 44.6 °F - 42.8 °F 93% 29.88 in 5.0 mi Calm Calm - 0.07 in Rain Rain
4:35 AM 44.6 °F 41.4 °F 42.8 °F 93% 29.89 in 10.0 mi WSW 5.8 mph - 0.13 in Rain Rain
4:55 AM 44.6 °F 42.2 °F 42.8 °F 93% 29.88 in 7.0 mi WSW 4.6 mph - 0.16 in Rain Rain
5:15 AM 44.6 °F 42.2 °F 42.8 °F 93% 29.89 in 10.0 mi SSW 4.6 mph - 0.05 in Rain Rain
5:35 AM 44.6 °F - 42.8 °F 93% 29.88 in 4.0 mi Calm Calm - 0.12 in Rain Rain
5:55 AM 44.6 °F - 42.8 °F 93% 29.89 in 3.0 mi Calm Calm - 0.19 in Rain Heavy Rain
6:15 AM 44.6 °F - 42.8 °F 93% 29.90 in 5.0 mi Calm Calm - 0.06 in Rain Rain
6:35 AM 44.6 °F 43.1 °F 42.8 °F 93% 29.91 in 10.0 mi SSW 3.5 mph - 0.10 in Rain Rain
6:55 AM 44.6 °F 43.1 °F 42.8 °F 93% 29.92 in 10.0 mi SW 3.5 mph - 0.16 in Rain Rain
7:15 AM 44.6 °F - 42.8 °F 93% 29.92 in 7.0 mi Calm Calm - 0.06 in Rain Rain
7:35 AM 44.6 °F - 42.8 °F 93% 29.92 in 10.0 mi Calm Calm - 0.12 in Rain Rain
7:55 AM 44.6 °F - 42.8 °F 93% 29.92 in 10.0 mi Calm Calm - 0.17 in Rain Rain
8:15 AM 44.6 °F - 42.8 °F 93% 29.92 in 10.0 mi Calm Calm - 0.05 in Rain Rain
8:35 AM 44.6 °F 43.1 °F 42.8 °F 93% 29.92 in 5.0 mi West 3.5 mph - 0.11 in Rain Rain
8:55 AM 44.6 °F 43.1 °F 42.8 °F 93% 29.92 in 7.0 mi WSW 3.5 mph - 0.15 in Rain Rain
9:15 AM 44.6 °F - 42.8 °F 93% 29.93 in 10.0 mi Calm Calm - 0.05 in Rain Rain
9:35 AM 44.6 °F 43.1 °F 42.8 °F 93% 29.93 in 10.0 mi WSW 3.5 mph - 0.09 in Rain Rain
9:55 AM 44.6 °F 41.4 °F 42.8 °F 93% 29.94 in 7.0 mi SW 5.8 mph - 0.11 in Rain Rain
10:15 AM 44.6 °F - 42.8 °F 93% 29.94 in 10.0 mi Calm Calm - 0.03 in Rain Rain
10:35 AM 44.6 °F 42.2 °F 42.8 °F 93% 29.95 in 10.0 mi WSW 4.6 mph - 0.05 in Rain Rain
10:55 AM 44.6 °F 41.4 °F 42.8 °F 93% 29.94 in 10.0 mi SW 5.8 mph - 0.06 in Rain Light Rain
11:15 AM 44.6 °F 43.1 °F 42.8 °F 93% 29.94 in 7.0 mi SW 3.5 mph - N/A   Drizzle
11:35 AM 44.6 °F 43.1 °F 42.8 °F 93% 29.95 in 10.0 mi WSW 3.5 mph - 0.01 in   Drizzle
11:55 AM 44.6 °F 43.1 °F 42.8 °F 93% 29.95 in 5.0 mi SW 3.5 mph - 0.01 in   Drizzle
12:15 PM 46.4 °F 44.3 °F 42.8 °F 87% 29.95 in 4.0 mi SW 4.6 mph - N/A   Light Drizzle
1:55 PM 46.4 °F 45.2 °F 44.6 °F 93% 29.97 in 10.0 mi South 3.5 mph - 0.01 in   Overcast
2:15 PM 46.4 °F 45.2 °F 44.6 °F 93% 29.96 in 10.0 mi South 3.5 mph - N/A   Overcast
2:35 PM 46.4 °F 45.2 °F 44.6 °F 93% 29.96 in 10.0 mi SSE 3.5 mph - N/A   Overcast
2:55 PM 46.4 °F - 44.6 °F 93% 29.96 in 10.0 mi Calm Calm - N/A   Overcast
3:15 PM 48.2 °F - 44.6 °F 87% 29.96 in 10.0 mi SE 3.5 mph - N/A   Overcast
3:35 PM 48.2 °F - 44.6 °F 87% 29.96 in 10.0 mi ESE 4.6 mph - N/A   Light Drizzle
3:55 PM 48.2 °F - 44.6 °F 87% 29.96 in 7.0 mi SE 4.6 mph - N/A   Overcast
4:15 PM 48.2 °F - 44.6 °F 87% 29.96 in 10.0 mi SSE 3.5 mph - N/A   Overcast
4:35 PM 48.2 °F - 44.6 °F 87% 29.97 in 10.0 mi South 3.5 mph - N/A   Overcast
4:55 PM 48.2 °F - 44.6 °F 87% 29.97 in 10.0 mi South 4.6 mph - N/A   Overcast
5:15 PM 48.2 °F - 44.6 °F 87% 29.97 in 7.0 mi South 6.9 mph - N/A   Overcast
5:35 PM 48.2 °F - 44.6 °F 87% 29.98 in 2.5 mi SSE 5.8 mph - N/A   Overcast
5:55 PM 46.4 °F 43.5 °F 44.6 °F 93% 29.98 in 1.8 mi SSW 5.8 mph - N/A   Overcast
6:15 PM 46.4 °F 43.5 °F 44.6 °F 93% 29.99 in 2.0 mi South 5.8 mph - N/A   Drizzle
6:35 PM 46.4 °F 43.5 °F 44.6 °F 93% 29.99 in 2.5 mi South 5.8 mph - N/A   Drizzle
6:55 PM 46.4 °F 43.5 °F 44.6 °F 93% 30.00 in 3.0 mi SSW 5.8 mph - 0.01 in   Drizzle
7:15 PM 46.4 °F 43.5 °F 44.6 °F 93% 30.00 in 3.0 mi South 5.8 mph - N/A   Drizzle
7:35 PM 46.4 °F - 44.6 °F 93% 30.00 in 10.0 mi Calm Calm - N/A   Drizzle
7:55 PM 46.4 °F - 44.6 °F 93% 30.00 in 10.0 mi Calm Calm - 0.01 in Rain Light Rain
8:15 PM 46.4 °F - 44.6 °F 93% 30.00 in 10.0 mi Calm Calm - N/A   Drizzle
8:35 PM 46.4 °F - 44.6 °F 93% 30.00 in 10.0 mi Calm Calm - N/A   Light Drizzle
8:55 PM 46.4 °F - 44.6 °F 93% 30.01 in 10.0 mi Calm Calm - N/A   Overcast
9:15 PM 46.4 °F - 44.6 °F 93% 30.00 in 10.0 mi Calm Calm - N/A   Overcast
9:35 PM 46.4 °F - 44.6 °F 93% 30.01 in 10.0 mi Calm Calm - N/A   Overcast
9:55 PM 46.4 °F - 44.6 °F 93% 30.01 in 10.0 mi Calm Calm - N/A   Overcast
10:15 PM 46.4 °F - 44.6 °F 93% 30.00 in 10.0 mi Calm Calm - N/A   Overcast
10:35 PM 46.4 °F 45.2 °F 44.6 °F 93% 30.00 in 10.0 mi NNE 3.5 mph - N/A   Overcast
10:55 PM 46.4 °F - 44.6 °F 93% 30.00 in 10.0 mi Calm Calm - N/A   Overcast
11:15 PM 46.4 °F - 44.6 °F 93% 29.99 in 10.0 mi Calm Calm - N/A   Overcast
11:35 PM 46.4 °F 45.2 °F 44.6 °F 93% 29.99 in 10.0 mi NNE 3.5 mph - N/A   Overcast
11:55 PM 46.4 °F - 44.6 °F 93% 29.98 in 10.0 mi Calm Calm - N/A   Overcast